Location: Unspecified
(0.0000°N, 0.0000°E)
Time: 18:52:46
(UTC+00:00)

Transit 2A - Pass Details

Date: 24 November 2019
Orbit: 602 x 957 km, 66.7° (Epoch: 06 December)

Event Time Altitude Azimuth Distance (km) Brightness Sun altitude
Rises 10:32:20 0° 236° (SW) 3,455 9.4 62.6°
Reaches altitude 10° 10:36:32 10° 264° (W) 2,429 8.6 63.3°
Maximum altitude 10:38:44 12° 288° (WNW) 2,215 8.3 63.6°
Drops below altitude 10° 10:40:52 10° 312° (NW) 2,327 8.4 63.9°
Sets 10:44:43 0° 341° (NNW) 3,156 8.9 64.5°
